Time,TemperatureF,DewpointF,PressureIn,WindDirection,WindDirectionDegrees,WindSpeedMPH,WindSpeedGustMPH,Humidity,HourlyPrecipIn,Conditions,Clouds,dailyrainin,SoftwareType,DateUTC
2013-01-08 00:02:00,33.0,30.0,-100.00,SSE,165,1.0,4.0,89,-99.99,,,-99.99,,2013-01-08 06:02:00,
2013-01-08 00:12:00,33.0,30.0,-100.00,South,170,4.0,5.0,90,-99.99,,,-99.99,,2013-01-08 06:12:00,
2013-01-08 00:22:00,33.0,30.0,-100.00,South,170,4.0,4.0,91,-99.99,,,-99.99,,2013-01-08 06:22:00,
2013-01-08 00:33:00,33.0,30.0,-100.00,South,170,4.0,4.0,91,-99.99,,,-99.99,,2013-01-08 06:33:00,
2013-01-08 00:42:00,32.0,30.0,-100.00,SSE,165,4.0,4.0,91,-99.99,,,-99.99,,2013-01-08 06:42:00,
2013-01-08 00:53:00,32.0,30.0,-100.00,SSE,165,4.0,6.0,93,-99.99,,,-99.99,,2013-01-08 06:53:00,
2013-01-08 01:02:00,32.0,30.0,-100.00,SSE,165,4.0,6.0,93,-99.99,,,-99.99,,2013-01-08 07:02:00,
2013-01-08 01:12:00,32.0,30.0,-100.00,SSE,150,1.0,4.0,93,-99.99,,,-99.99,,2013-01-08 07:12:00,
2013-01-08 01:22:00,32.0,30.0,-100.00,SSE,155,0.0,4.0,93,-99.99,,,-99.99,,2013-01-08 07:22:00,
2013-01-08 01:32:00,32.0,30.0,-100.00,SSE,155,0.0,4.0,93,-99.99,,,-99.99,,2013-01-08 07:32:00,
2013-01-08 01:42:00,31.0,30.0,-100.00,SSE,160,4.0,4.0,94,-99.99,,,-99.99,,2013-01-08 07:42:00,
2013-01-08 01:52:00,31.0,29.0,-100.00,SSE,150,1.0,4.0,95,-99.99,,,-99.99,,2013-01-08 07:52:00,
2013-01-08 02:02:00,31.0,29.0,-100.00,SSE,150,1.0,4.0,95,-99.99,,,-99.99,,2013-01-08 08:02:00,
2013-01-08 02:12:00,30.0,29.0,-100.00,SSE,160,3.0,3.0,96,-99.99,,,-99.99,,2013-01-08 08:12:00,
2013-01-08 02:22:00,30.0,30.0,-100.00,SSE,165,4.0,4.0,97,-99.99,,,-99.99,,2013-01-08 08:22:00,
2013-01-08 02:32:00,30.0,30.0,-100.00,SSE,165,4.0,4.0,97,-99.99,,,-99.99,,2013-01-08 08:32:00,
2013-01-08 02:42:00,30.0,29.0,-100.00,SSE,160,4.0,6.0,97,-99.99,,,-99.99,,2013-01-08 08:42:00,
2013-01-08 02:53:00,30.0,29.0,-100.00,SSE,165,0.0,4.0,97,-99.99,,,-99.99,,2013-01-08 08:53:00,
2013-01-08 03:01:00,30.0,29.0,-100.00,SSE,165,2.0,4.0,97,-99.99,,,-99.99,,2013-01-08 09:01:00,
2013-01-08 03:02:00,30.0,29.0,-100.00,SSE,165,0.0,4.0,97,-99.99,,,-99.99,,2013-01-08 09:02:00,
2013-01-08 03:12:00,30.0,29.0,-100.00,SSE,160,2.0,3.0,97,-99.99,,,-99.99,,2013-01-08 09:12:00,
2013-01-08 03:22:00,30.0,29.0,-100.00,SSE,150,1.0,4.0,97,-99.99,,,-99.99,,2013-01-08 09:22:00,
2013-01-08 03:32:00,30.0,29.0,-100.00,SSE,150,1.0,4.0,97,-99.99,,,-99.99,,2013-01-08 09:32:00,
2013-01-08 03:42:00,30.0,29.0,-100.00,SSE,165,2.0,4.0,97,-99.99,,,-99.99,,2013-01-08 09:42:00,
2013-01-08 03:52:00,30.0,29.0,-100.00,SSE,165,2.0,4.0,97,-99.99,,,-99.99,,2013-01-08 09:52:00,
2013-01-08 04:12:00,29.0,28.0,-100.00,South,170,4.0,6.0,97,-99.99,,,-99.99,,2013-01-08 10:12:00,
2013-01-08 04:22:00,29.0,29.0,-100.00,South,175,2.0,5.0,98,-99.99,,,-99.99,,2013-01-08 10:22:00,
2013-01-08 04:31:00,29.0,29.0,-100.00,SSE,160,4.0,4.0,99,-99.99,,,-99.99,,2013-01-08 10:31:00,
2013-01-08 04:32:00,29.0,29.0,-100.00,South,175,2.0,5.0,98,-99.99,,,-99.99,,2013-01-08 10:32:00,
2013-01-08 04:42:00,29.0,29.0,-100.00,South,180,3.0,6.0,99,-99.99,,,-99.99,,2013-01-08 10:42:00,
2013-01-08 04:52:00,29.0,29.0,-100.00,SSE,165,4.0,6.0,99,-99.99,,,-99.99,,2013-01-08 10:52:00,
2013-01-08 05:02:00,29.0,29.0,-100.00,SSE,165,4.0,6.0,99,-99.99,,,-99.99,,2013-01-08 11:02:00,
2013-01-08 05:12:00,29.0,29.0,-100.00,SSE,160,4.0,4.0,99,-99.99,,,-99.99,,2013-01-08 11:12:00,
2013-01-08 05:22:00,29.0,29.0,-100.00,SSE,160,4.0,4.0,99,-99.99,,,-99.99,,2013-01-08 11:22:00,
2013-01-08 05:42:00,29.0,29.0,-100.00,South,170,4.0,4.0,99,-99.99,,,-99.99,,2013-01-08 11:42:00,
2013-01-08 05:53:00,29.0,29.0,-100.00,South,170,4.0,5.0,99,-99.99,,,-99.99,,2013-01-08 11:53:00,
2013-01-08 06:01:00,29.0,28.0,-100.00,South,170,4.0,6.0,99,-99.99,,,-99.99,,2013-01-08 12:01:00,
2013-01-08 06:03:00,29.0,29.0,-100.00,South,170,4.0,5.0,99,-99.99,,,-99.99,,2013-01-08 12:03:00,
2013-01-08 06:12:00,29.0,29.0,-100.00,SSE,165,4.0,6.0,99,-99.99,,,-99.99,,2013-01-08 12:12:00,
2013-01-08 06:22:00,29.0,29.0,-100.00,SSE,165,4.0,5.0,99,-99.99,,,-99.99,,2013-01-08 12:22:00,
2013-01-08 06:33:00,29.0,28.0,-100.00,South,170,4.0,6.0,99,-99.99,,,-99.99,,2013-01-08 12:33:00,
2013-01-08 06:42:00,29.0,28.0,-100.00,South,170,4.0,6.0,99,-99.99,,,-99.99,,2013-01-08 12:42:00,
2013-01-08 06:53:00,29.0,28.0,-100.00,South,170,4.0,6.0,99,-99.99,,,-99.99,,2013-01-08 12:53:00,
2013-01-08 07:12:00,28.0,28.0,-100.00,South,175,4.0,7.0,99,-99.99,,,-99.99,,2013-01-08 13:12:00,
2013-01-08 07:22:00,28.0,28.0,-100.00,SSE,160,4.0,5.0,99,-99.99,,,-99.99,,2013-01-08 13:22:00,
2013-01-08 07:33:00,28.0,28.0,-100.00,SSE,160,4.0,5.0,99,-99.99,,,-99.99,,2013-01-08 13:33:00,
2013-01-08 07:42:00,28.0,28.0,-100.00,SSE,160,4.0,5.0,99,-99.99,,,-99.99,,2013-01-08 13:42:00,
2013-01-08 07:53:00,28.0,28.0,-100.00,SSE,165,4.0,4.0,99,-99.99,,,-99.99,,2013-01-08 13:53:00,
2013-01-08 08:02:00,28.0,28.0,-100.00,SSE,165,4.0,4.0,99,-99.99,,,-99.99,,2013-01-08 14:02:00,
2013-01-08 08:12:00,29.0,28.0,-100.00,SSE,165,4.0,4.0,99,-99.99,,,-99.99,,2013-01-08 14:12:00,
2013-01-08 08:23:00,29.0,29.0,-100.00,SSE,155,2.0,4.0,99,-99.99,,,-99.99,,2013-01-08 14:23:00,
2013-01-08 08:33:00,29.0,29.0,-100.00,SSE,155,2.0,4.0,99,-99.99,,,-99.99,,2013-01-08 14:33:00,
2013-01-08 08:43:00,29.0,29.0,-100.00,SSE,160,4.0,4.0,99,-99.99,,,-99.99,,2013-01-08 14:43:00,
2013-01-08 08:53:00,29.0,29.0,-100.00,SSE,165,4.0,5.0,99,-99.99,,,-99.99,,2013-01-08 14:53:00,
2013-01-08 09:03:00,30.0,30.0,-100.00,SSE,165,3.0,5.0,99,-99.99,,,-99.99,,2013-01-08 15:03:00,
2013-01-08 09:12:00,30.0,30.0,-100.00,SSE,165,3.0,5.0,99,-99.99,,,-99.99,,2013-01-08 15:12:00,
2013-01-08 09:22:00,31.0,31.0,-100.00,South,185,1.0,5.0,99,-99.99,,,-99.99,,2013-01-08 15:22:00,
2013-01-08 09:33:00,31.0,31.0,-100.00,South,185,1.0,5.0,99,-99.99,,,-99.99,,2013-01-08 15:33:00,
2013-01-08 09:43:00,33.0,32.0,-100.00,SSE,165,2.0,6.0,98,-99.99,,,-99.99,,2013-01-08 15:43:00,
2013-01-08 09:53:00,33.0,32.0,-100.00,South,170,4.0,8.0,95,-99.99,,,-99.99,,2013-01-08 15:53:00,
2013-01-08 10:03:00,33.0,32.0,-100.00,South,170,4.0,8.0,95,-99.99,,,-99.99,,2013-01-08 16:03:00,
2013-01-08 10:12:00,34.0,31.0,-100.00,SSE,160,4.0,9.0,91,-99.99,,,-99.99,,2013-01-08 16:12:00,
2013-01-08 10:22:00,35.0,32.0,-100.00,SSE,160,4.0,6.0,90,-99.99,,,-99.99,,2013-01-08 16:22:00,
2013-01-08 10:34:00,35.0,32.0,-100.00,SSE,160,4.0,6.0,90,-99.99,,,-99.99,,2013-01-08 16:34:00,
2013-01-08 10:42:00,36.0,32.0,-100.00,South,180,4.0,8.0,85,-99.99,,,-99.99,,2013-01-08 16:42:00,
2013-01-08 10:53:00,39.0,33.0,-100.00,SSW,210,4.0,7.0,80,-99.99,,,-99.99,,2013-01-08 16:53:00,
2013-01-08 11:03:00,39.0,33.0,-100.00,SSW,210,4.0,7.0,80,-99.99,,,-99.99,,2013-01-08 17:03:00,
2013-01-08 11:13:00,39.0,33.0,-100.00,South,190,3.0,8.0,77,-99.99,,,-99.99,,2013-01-08 17:13:00,
2013-01-08 11:23:00,40.0,33.0,-100.00,SSW,195,4.0,7.0,75,-99.99,,,-99.99,,2013-01-08 17:23:00,
2013-01-08 11:33:00,40.0,33.0,-100.00,SSW,195,4.0,7.0,75,-99.99,,,-99.99,,2013-01-08 17:33:00,
2013-01-08 11:43:00,42.0,33.0,-100.00,South,185,4.0,6.0,71,-99.99,,,-99.99,,2013-01-08 17:43:00,
2013-01-08 11:54:00,43.0,34.0,-100.00,SSW,210,3.0,10.0,68,-99.99,,,-99.99,,2013-01-08 17:54:00,
2013-01-08 12:03:00,43.0,34.0,-100.00,SSW,210,3.0,10.0,68,-99.99,,,-99.99,,2013-01-08 18:03:00,
2013-01-08 12:13:00,44.0,33.0,-100.00,South,190,6.0,12.0,65,-99.99,,,-99.99,,2013-01-08 18:13:00,
2013-01-08 12:23:00,45.0,34.0,-100.00,South,190,7.0,13.0,64,-99.99,,,-99.99,,2013-01-08 18:23:00,
2013-01-08 12:33:00,45.0,34.0,-100.00,South,190,7.0,13.0,64,-99.99,,,-99.99,,2013-01-08 18:33:00,
2013-01-08 12:43:00,47.0,34.0,-100.00,SSE,165,6.0,10.0,62,-99.99,,,-99.99,,2013-01-08 18:43:00,
2013-01-08 12:53:00,47.0,34.0,-100.00,South,175,4.0,10.0,61,-99.99,,,-99.99,,2013-01-08 18:53:00,
2013-01-08 13:03:00,47.0,34.0,-100.00,South,175,4.0,10.0,61,-99.99,,,-99.99,,2013-01-08 19:03:00,
2013-01-08 13:12:00,47.0,35.0,-100.00,SSE,165,4.0,11.0,61,-99.99,,,-99.99,,2013-01-08 19:12:00,
2013-01-08 13:23:00,47.0,35.0,-100.00,SSE,160,3.0,11.0,62,-99.99,,,-99.99,,2013-01-08 19:23:00,
2013-01-08 13:32:00,47.0,35.0,-100.00,SSE,160,3.0,11.0,62,-99.99,,,-99.99,,2013-01-08 19:32:00,
2013-01-08 13:42:00,47.0,35.0,-100.00,SSE,160,5.0,10.0,62,-99.99,,,-99.99,,2013-01-08 19:42:00,
2013-01-08 13:53:00,47.0,35.0,-100.00,South,170,5.0,10.0,61,-99.99,,,-99.99,,2013-01-08 19:53:00,
2013-01-08 14:03:00,47.0,35.0,-100.00,South,170,5.0,10.0,61,-99.99,,,-99.99,,2013-01-08 20:03:00,
2013-01-08 14:12:00,48.0,35.0,-100.00,SE,145,4.0,9.0,61,-99.99,,,-99.99,,2013-01-08 20:12:00,
2013-01-08 14:23:00,49.0,36.0,-100.00,SSE,165,7.0,10.0,61,-99.99,,,-99.99,,2013-01-08 20:23:00,
2013-01-08 14:33:00,49.0,36.0,-100.00,SSE,165,7.0,10.0,61,-99.99,,,-99.99,,2013-01-08 20:33:00,
2013-01-08 14:43:00,49.0,35.0,-100.00,SSE,165,6.0,11.0,59,-99.99,,,-99.99,,2013-01-08 20:43:00,
2013-01-08 14:54:00,48.0,35.0,-100.00,SSE,155,6.0,11.0,60,-99.99,,,-99.99,,2013-01-08 20:54:00,
2013-01-08 15:03:00,48.0,35.0,-100.00,SSE,155,6.0,11.0,60,-99.99,,,-99.99,,2013-01-08 21:03:00,
2013-01-08 15:13:00,49.0,36.0,-100.00,SSE,165,5.0,12.0,60,-99.99,,,-99.99,,2013-01-08 21:13:00,
2013-01-08 15:23:00,49.0,35.0,-100.00,SSE,160,6.0,11.0,59,-99.99,,,-99.99,,2013-01-08 21:23:00,
2013-01-08 15:33:00,49.0,35.0,-100.00,SSE,160,6.0,11.0,59,-99.99,,,-99.99,,2013-01-08 21:33:00,
2013-01-08 15:43:00,49.0,35.0,-100.00,SSE,160,6.0,10.0,58,-99.99,,,-99.99,,2013-01-08 21:43:00,
2013-01-08 15:53:00,50.0,36.0,-100.00,South,175,5.0,9.0,58,-99.99,,,-99.99,,2013-01-08 21:53:00,
2013-01-08 16:01:00,49.0,34.0,-100.00,SSE,155,6.0,11.0,58,-99.99,,,-99.99,,2013-01-08 22:01:00,
2013-01-08 16:03:00,50.0,36.0,-100.00,South,175,5.0,9.0,58,-99.99,,,-99.99,,2013-01-08 22:03:00,
2013-01-08 16:12:00,50.0,35.0,-100.00,South,170,6.0,12.0,56,-99.99,,,-99.99,,2013-01-08 22:12:00,
2013-01-08 16:23:00,49.0,34.0,-100.00,SSE,155,6.0,10.0,56,-99.99,,,-99.99,,2013-01-08 22:23:00,
2013-01-08 16:33:00,49.0,34.0,-100.00,SSE,155,6.0,10.0,56,-99.99,,,-99.99,,2013-01-08 22:33:00,
2013-01-08 16:43:00,49.0,34.0,-100.00,SSE,155,6.0,11.0,58,-99.99,,,-99.99,,2013-01-08 22:43:00,
2013-01-08 16:53:00,49.0,34.0,-100.00,SSE,155,6.0,11.0,58,-99.99,,,-99.99,,2013-01-08 22:53:00,
2013-01-08 17:53:00,43.0,32.0,-100.00,SE,145,4.0,6.0,64,-99.99,,,-99.99,,2013-01-08 23:53:00,
2013-01-08 18:03:00,43.0,32.0,-100.00,SE,145,4.0,6.0,64,-99.99,,,-99.99,,2013-01-09 00:03:00,
2013-01-08 18:12:00,44.0,32.0,-100.00,SE,140,6.0,10.0,63,-99.99,,,-99.99,,2013-01-09 00:12:00,
2013-01-08 18:22:00,43.0,31.0,-100.00,SE,145,8.0,12.0,64,-99.99,,,-99.99,,2013-01-09 00:22:00,
2013-01-08 18:33:00,43.0,31.0,-100.00,SE,145,8.0,12.0,64,-99.99,,,-99.99,,2013-01-09 00:33:00,
2013-01-08 18:42:00,42.0,32.0,-100.00,ESE,120,5.0,11.0,65,-99.99,,,-99.99,,2013-01-09 00:42:00,
2013-01-08 18:53:00,42.0,32.0,-100.00,SSE,150,6.0,11.0,67,-99.99,,,-99.99,,2013-01-09 00:53:00,
2013-01-08 19:02:00,42.0,32.0,-100.00,SSE,150,6.0,11.0,67,-99.99,,,-99.99,,2013-01-09 01:02:00,
2013-01-08 19:12:00,41.0,32.0,-100.00,SE,135,4.0,11.0,70,-99.99,,,-99.99,,2013-01-09 01:12:00,
2013-01-08 19:22:00,40.0,32.0,-100.00,SE,135,9.0,12.0,73,-99.99,,,-99.99,,2013-01-09 01:22:00,
2013-01-08 19:32:00,40.0,32.0,-100.00,SE,135,9.0,12.0,73,-99.99,,,-99.99,,2013-01-09 01:32:00,
2013-01-08 19:42:00,40.0,33.0,-100.00,SSE,165,0.0,15.0,75,-99.99,,,-99.99,,2013-01-09 01:42:00,
2013-01-08 19:52:00,41.0,34.0,-100.00,SSE,160,1.0,14.0,76,-99.99,,,-99.99,,2013-01-09 01:52:00,
2013-01-08 20:01:00,40.0,35.0,-100.00,South,190,4.0,6.0,81,-99.99,,,-99.99,,2013-01-09 02:01:00,
2013-01-08 20:02:00,41.0,34.0,-100.00,SSE,160,1.0,14.0,76,-99.99,,,-99.99,,2013-01-09 02:02:00,
2013-01-08 20:12:00,41.0,34.0,-100.00,South,175,1.0,11.0,77,-99.99,,,-99.99,,2013-01-09 02:12:00,
2013-01-08 20:22:00,40.0,34.0,-100.00,WNW,285,0.0,9.0,79,-99.99,,,-99.99,,2013-01-09 02:22:00,
2013-01-08 20:33:00,40.0,34.0,-100.00,WNW,285,0.0,9.0,79,-99.99,,,-99.99,,2013-01-09 02:33:00,
2013-01-08 20:43:00,40.0,35.0,-100.00,South,190,4.0,6.0,81,-99.99,,,-99.99,,2013-01-09 02:43:00,
2013-01-08 20:53:00,40.0,35.0,-100.00,South,190,4.0,6.0,81,-99.99,,,-99.99,,2013-01-09 02:53:00,
2013-01-08 21:12:00,41.0,35.0,-100.00,South,180,4.0,11.0,80,-99.99,,,-99.99,,2013-01-09 03:12:00,
2013-01-08 21:22:00,41.0,35.0,-100.00,South,185,6.0,10.0,79,-99.99,,,-99.99,,2013-01-09 03:22:00,
2013-01-08 21:33:00,41.0,35.0,-100.00,South,185,6.0,10.0,79,-99.99,,,-99.99,,2013-01-09 03:33:00,
2013-01-08 21:43:00,41.0,35.0,-100.00,South,185,5.0,11.0,78,-99.99,,,-99.99,,2013-01-09 03:43:00,
2013-01-08 21:53:00,41.0,35.0,-100.00,South,185,5.0,8.0,78,-99.99,,,-99.99,,2013-01-09 03:53:00,
2013-01-08 22:01:00,39.0,34.0,-100.00,SSW,210,5.0,8.0,81,-99.99,,,-99.99,,2013-01-09 04:01:00,
2013-01-08 22:02:00,41.0,35.0,-100.00,South,185,5.0,8.0,78,-99.99,,,-99.99,,2013-01-09 04:02:00,
2013-01-08 22:12:00,41.0,34.0,-100.00,SSW,195,4.0,8.0,78,-99.99,,,-99.99,,2013-01-09 04:12:00,
2013-01-08 22:22:00,40.0,34.0,-100.00,SSW,200,5.0,9.0,78,-99.99,,,-99.99,,2013-01-09 04:22:00,
2013-01-08 22:32:00,40.0,34.0,-100.00,SSW,200,5.0,9.0,78,-99.99,,,-99.99,,2013-01-09 04:32:00,
2013-01-08 22:42:00,39.0,34.0,-100.00,SSW,210,5.0,8.0,81,-99.99,,,-99.99,,2013-01-09 04:42:00,
2013-01-08 22:52:00,39.0,34.0,-100.00,SSW,210,5.0,8.0,81,-99.99,,,-99.99,,2013-01-09 04:52:00,
2013-01-08 23:22:00,38.0,34.0,-100.00,SW,215,5.0,7.0,86,-99.99,,,-99.99,,2013-01-09 05:22:00,
2013-01-08 23:33:00,38.0,34.0,-100.00,SW,215,5.0,7.0,86,-99.99,,,-99.99,,2013-01-09 05:33:00,
2013-01-08 23:42:00,37.0,34.0,-100.00,SSW,205,6.0,7.0,88,-99.99,,,-99.99,,2013-01-09 05:42:00,
2013-01-08 23:53:00,37.0,34.0,-100.00,SSW,210,6.0,9.0,88,-99.99,,,-99.99,,2013-01-09 05:53:00,